Le nostre stazioni meteo in Italia

Pubblicità
Il mio iltempo24.it
Ancona, Italia (16190): Temperatura & dewpoint: 15.01.2020 03:00:00 - 21.01.2020 03:00:00 (CET)Ancona, Italia (16190): velocità del vento: 15.01.2020 03:00:00 - 21.01.2020 03:00:00 (CET)Ancona, Italia (16190): direzione del vento: 15.01.2020 03:00:00 - 21.01.2020 03:00:00 (CET)Ancona, Italia (16190): reduced air pressure: 15.01.2020 03:00:00 - 21.01.2020 03:00:00 (CET)
Data & Tempo tt [°C] td [°C] ff [km/h] ff [kn] dd ppp [hPa]
21.01.2020 03:00:00 - - - - - -
21.01.2020 02:00:00 6,4 0,0 9 5 O 1037,0
21.01.2020 01:00:00 6,6 0,0 8 4 ONO 1036,9
21.01.2020 00:00:00 7,0 -0,1 8 4 ONO 1036,9
20.01.2020 23:00:00 7,8 0,0 5 3 N 1036,9
20.01.2020 22:00:00 7,5 0,1 9 5 NNE 1036,5
20.01.2020 21:00:00 7,0 -0,1 8 4 NNE 1036,2
20.01.2020 20:00:00 7,3 0,4 2 1 NE 1035,9
20.01.2020 19:00:00 7,6 0,0 2 1 NE 1035,5
20.01.2020 18:00:00 7,3 -0,5 2 1 NE 1035,0
20.01.2020 17:00:00 7,9 -0,2 5 3 NNE 1034,2
20.01.2020 16:00:00 9,7 -0,1 5 3 NE 1033,9
20.01.2020 15:00:00 9,7 -0,1 8 4 NNE 1033,4
20.01.2020 14:00:00 10,3 -0,3 8 4 NE 1033,4
20.01.2020 13:00:00 10,6 -0,1 5 3 NE 1033,3
20.01.2020 12:00:00 10,9 0,2 8 4 NE 1033,0
20.01.2020 11:00:00 10,3 -0,1 8 4 NNE 1033,1
20.01.2020 10:00:00 9,3 -0,4 13 7 NE 1032,8
20.01.2020 09:00:00 8,4 -0,2 8 4 NE 1032,2
20.01.2020 08:00:00 8,3 -0,3 8 4 NE 1031,6
20.01.2020 07:00:00 8,1 -0,5 4 2 NE 1030,9
20.01.2020 06:00:00 8,2 -0,9 8 4 NE 1030,3
20.01.2020 05:00:00 7,9 -1,5 13 7 NE 1030,1
20.01.2020 04:00:00 8,3 -1,4 13 7 NE 1029,7
20.01.2020 03:00:00 8,6 -0,8 5 3 ENE 1029,5
20.01.2020 02:00:00 8,4 -0,5 13 7 O 1029,0
20.01.2020 01:00:00 8,2 0,1 8 4 NE 1028,5
20.01.2020 00:00:00 8,1 0,0 11 6 NE 1028,2
19.01.2020 23:00:00 8,1 0,2 5 3 NE 1027,5
19.01.2020 22:00:00 8,3 -0,1 13 7 NE 1026,7
19.01.2020 21:00:00 8,5 0,6 11 6 NE 1026,3
19.01.2020 20:00:00 8,7 0,6 8 4 NE 1025,7
19.01.2020 19:00:00 8,9 1,0 11 6 NE 1024,8
19.01.2020 18:00:00 8,9 1,2 4 2 NE 1024,2
19.01.2020 17:00:00 9,1 1,2 9 5 NE 1023,1
19.01.2020 16:00:00 9,2 1,5 5 3 NE 1022,2
19.01.2020 15:00:00 9,3 4,0 11 6 N 1021,5
19.01.2020 14:00:00 8,8 4,2 2 1 N 1021,2
19.01.2020 13:00:00 8,1 4,3 8 4 O 1021,1
19.01.2020 12:00:00 8,3 4,1 4 2 O 1021,1
19.01.2020 11:00:00 9,8 2,8 11 6 NE 1020,7
19.01.2020 10:00:00 9,4 2,6 9 5 NE 1020,2
19.01.2020 09:00:00 9,4 3,3 9 5 NE 1019,4
19.01.2020 08:00:00 8,9 2,4 13 7 NE 1018,6
19.01.2020 07:00:00 8,9 2,8 5 3 N 1018,1
19.01.2020 06:00:00 8,3 3,9 11 6 NE 1017,7
19.01.2020 05:00:00 8,1 5,4 9 5 NO 1017,6
19.01.2020 04:00:00 8,5 5,9 9 5 E 1017,1
19.01.2020 03:00:00 8,2 6,5 13 7 ENE 1016,9
19.01.2020 02:00:00 6,6 5,1 11 6 ONO 1016,7
19.01.2020 01:00:00 6,7 4,8 11 6 OSO 1016,5
19.01.2020 00:00:00 6,6 4,6 9 5 OSO 1016,5
18.01.2020 23:00:00 6,6 4,4 16 9 O 1016,5
18.01.2020 22:00:00 6,7 4,5 5 3 O 1016,8
18.01.2020 21:00:00 6,7 4,7 9 5 O 1016,9
18.01.2020 20:00:00 6,6 4,7 15 8 O 1016,9
18.01.2020 19:00:00 6,7 4,8 21 11 ONO 1016,7
18.01.2020 18:00:00 6,7 5,0 11 6 ONO 1016,6
18.01.2020 17:00:00 6,9 5,4 13 7 NO 1016,3
18.01.2020 16:00:00 6,8 5,3 16 9 NO 1016,0
18.01.2020 15:00:00 7,0 5,0 28 15 NO 1015,8
18.01.2020 14:00:00 7,2 5,0 28 15 NO 1015,6
18.01.2020 13:00:00 7,5 5,4 22 12 ONO 1016,0
18.01.2020 12:00:00 8,6 4,7 15 8 ONO 1016,2
18.01.2020 11:00:00 10,2 2,9 5 3 OSO 1016,4
18.01.2020 10:00:00 10,2 1,5 15 8 S 1016,2
18.01.2020 09:00:00 11,4 1,5 9 5 SSE 1016,0
18.01.2020 08:00:00 10,9 1,3 11 6 SSE 1016,1
18.01.2020 07:00:00 10,6 2,1 8 4 SSE 1015,9
18.01.2020 06:00:00 11,3 2,8 16 9 ESE 1015,8
18.01.2020 05:00:00 10,6 3,1 11 6 SSE 1016,4
18.01.2020 04:00:00 9,0 2,9 13 7 SSE 1017,1
18.01.2020 03:00:00 10,3 3,9 5 3 SE 1017,7
18.01.2020 02:00:00 10,3 3,3 2 1 S 1017,8
18.01.2020 01:00:00 9,6 3,3 8 4 S 1018,1
18.01.2020 00:00:00 8,7 2,6 8 4 SSO 1018,7
17.01.2020 23:00:00 8,6 2,5 9 5 S 1019,1
17.01.2020 22:00:00 7,7 2,7 16 9 S 1019,3
17.01.2020 21:00:00 7,0 2,8 15 8 SSO 1019,7
17.01.2020 20:00:00 7,2 3,0 18 10 S 1019,8
17.01.2020 19:00:00 7,4 3,0 16 9 S 1020,0
17.01.2020 18:00:00 8,0 3,4 11 6 S 1020,2
17.01.2020 17:00:00 8,9 4,1 2 1 S 1019,8
17.01.2020 16:00:00 8,5 3,3 4 2 N 1019,6
17.01.2020 15:00:00 9,7 3,4 11 6 N 1019,7
17.01.2020 14:00:00 9,5 3,2 8 4 N 1019,9
17.01.2020 13:00:00 8,8 2,7 4 2 NNO 1020,7
17.01.2020 12:00:00 8,9 3,2 11 6 ONO 1021,4
17.01.2020 11:00:00 8,6 2,7 11 6 O 1022,0
17.01.2020 10:00:00 7,3 2,5 5 3 ONO 1022,0
17.01.2020 09:00:00 6,5 2,1 8 4 O 1022,2
17.01.2020 08:00:00 5,3 1,7 9 5 O 1022,1
17.01.2020 07:00:00 5,3 1,9 15 8 O 1022,1
17.01.2020 06:00:00 5,5 2,5 21 11 O 1022,1
17.01.2020 05:00:00 5,3 2,3 21 11 O 1022,2
17.01.2020 04:00:00 5,5 2,5 21 11 O 1022,5
17.01.2020 03:00:00 5,6 2,6 18 10 O 1022,8
17.01.2020 02:00:00 5,7 2,8 24 13 O 1023,1
17.01.2020 01:00:00 5,8 3,1 15 8 O 1023,4
17.01.2020 00:00:00 5,8 3,4 22 12 O 1023,7
16.01.2020 23:00:00 5,7 4,0 18 10 O 1024,0
16.01.2020 22:00:00 5,6 4,1 18 10 O 1024,1
16.01.2020 21:00:00 5,9 4,4 24 13 O 1024,4
16.01.2020 20:00:00 6,6 5,1 22 12 O 1024,8
16.01.2020 19:00:00 6,8 5,1 22 12 ONO 1024,8
16.01.2020 18:00:00 7,0 5,0 21 11 ONO 1024,5
16.01.2020 17:00:00 7,3 4,7 15 8 ONO 1024,5
16.01.2020 16:00:00 8,0 5,1 13 7 NO 1024,7
16.01.2020 15:00:00 7,9 5,2 18 10 NNO 1024,7
16.01.2020 14:00:00 7,9 5,0 9 5 NNO 1025,2
16.01.2020 13:00:00 7,6 4,3 11 6 NO 1025,6
16.01.2020 12:00:00 7,8 5,1 24 13 ONO 1026,2
16.01.2020 11:00:00 7,5 4,8 15 8 O 1027,0
16.01.2020 10:00:00 7,1 4,7 13 7 ONO 1027,0
16.01.2020 09:00:00 6,6 4,4 15 8 O 1026,7
16.01.2020 08:00:00 5,9 3,7 4 2 SO 1026,4
16.01.2020 07:00:00 6,0 3,6 8 4 O 1026,1
16.01.2020 06:00:00 6,3 3,8 11 6 ONO 1025,7
16.01.2020 05:00:00 6,9 4,3 4 2 O 1025,4
16.01.2020 04:00:00 7,3 4,9 5 3 ONO 1025,3
16.01.2020 03:00:00 7,2 5,0 2 1 SSO 1025,2
16.01.2020 02:00:00 6,9 4,5 4 2 ONO 1025,0
16.01.2020 01:00:00 7,2 5,0 5 3 ONO 1024,9
16.01.2020 00:00:00 6,9 4,5 4 2 SSO 1025,0
15.01.2020 23:00:00 6,6 4,2 5 3 O 1024,8
15.01.2020 22:00:00 6,6 4,2 5 3 O 1024,7
15.01.2020 21:00:00 6,4 4,4 8 4 ONO 1024,9
15.01.2020 20:00:00 6,7 5,0 9 5 O 1025,1
15.01.2020 19:00:00 6,6 4,9 5 3 OSO 1025,0
15.01.2020 18:00:00 6,6 4,4 8 4 O 1024,5
15.01.2020 17:00:00 7,6 4,7 5 3 OSO 1023,9
15.01.2020 16:00:00 10,0 6,1 2 1 O 1023,5
15.01.2020 15:00:00 8,5 5,6 5 3 ONO 1023,6
15.01.2020 14:00:00 8,7 5,9 8 4 NO 1023,8
15.01.2020 13:00:00 8,2 5,3 8 4 NO 1024,2
15.01.2020 12:00:00 8,4 4,6 8 4 NO 1024,3
15.01.2020 11:00:00 10,0 3,0 5 3 NE 1024,6
15.01.2020 10:00:00 10,6 3,5 4 2 SSO 1024,5
15.01.2020 09:00:00 8,4 2,1 2 1 SSE 1024,5
15.01.2020 08:00:00 6,4 2,8 11 6 S 1024,2
15.01.2020 07:00:00 6,3 4,3 8 4 SSO 1024,1
15.01.2020 06:00:00 6,4 4,5 4 2 SO 1023,9
15.01.2020 05:00:00 6,5 3,1 9 5 O 1023,9
15.01.2020 04:00:00 6,7 4,0 4 2 SSO 1023,9
15.01.2020 03:00:00 7,1 4,4 4 2 ONO 1024,0

tt = Temperatura
td = dewpoint
ff = velocità del vento
dd = direzione del vento
ppp = reduced air pressure

Stazioni seguenti

WeatherPro
AMSI
MeteoEarth